Date Time,Air Temp,Sky Temp,Clarity,Light Level,Rain Sensor,Readings
2009-10-04 00:00:03,19.4,6.6,12.9,0.3,2.3,111
2009-10-04 00:05:03,19.4,6.3,13.1,0.3,2.7,112
2009-10-04 00:10:03,19.2,5.4,13.8,0.3,9.6,111
2009-10-04 00:15:03,19.1,7.5,11.5,0.3,17.1,111
2009-10-04 00:20:03,19.1,7.7,11.4,0.2,20.4,112
2009-10-04 00:25:03,18.9,7.4,11.6,0.2,7.0,112
2009-10-04 00:30:03,18.5,8.0,10.5,0.2,3.8,111
2009-10-04 00:35:03,18.3,8.3,10.0,0.3,5.0,111
2009-10-04 00:40:03,18.1,8.4,9.7,0.3,3.0,112
2009-10-04 00:45:03,18.0,8.3,9.7,0.3,3.7,111
2009-10-04 00:50:03,17.9,7.9,10.0,0.3,2.7,111
2009-10-04 00:55:03,17.8,8.1,9.7,0.4,2.3,112
2009-10-04 01:00:03,17.7,8.0,9.8,0.4,2.3,111
2009-10-04 01:05:03,17.7,7.9,9.8,0.4,2.3,111
2009-10-04 01:10:03,17.7,6.0,11.7,0.3,2.3,112
2009-10-04 01:15:03,17.4,4.6,12.8,0.3,2.4,112
2009-10-04 01:20:03,17.7,4.2,13.4,0.3,2.3,112
2009-10-04 01:25:03,17.6,4.7,12.9,0.2,2.9,111
2009-10-04 01:30:03,17.6,4.9,12.7,0.3,3.7,112
2009-10-04 01:35:03,17.6,5.1,12.5,0.3,5.5,111
2009-10-04 01:40:03,17.5,5.2,12.4,0.3,3.4,112
2009-10-04 01:45:03,17.5,4.7,12.8,0.3,4.5,112
2009-10-04 01:50:03,17.4,5.6,11.9,0.3,5.4,112
2009-10-04 01:55:03,17.5,4.9,12.6,0.3,7.9,111
2009-10-04 02:00:03,17.5,6.8,10.7,0.3,5.0,112
2009-10-04 02:05:03,17.4,7.5,9.9,0.4,2.4,111
2009-10-04 02:10:03,17.4,7.8,9.5,0.3,3.5,112
2009-10-04 02:15:03,17.4,7.6,9.7,0.3,2.1,111
2009-10-04 02:20:03,17.4,8.0,9.4,0.4,2.3,112
2009-10-04 02:25:03,17.4,7.9,9.5,0.4,2.3,111
2009-10-04 02:30:03,17.4,6.7,10.7,0.4,2.2,112
2009-10-04 02:35:03,17.5,4.1,13.4,0.4,2.0,111
2009-10-04 02:40:03,17.5,2.4,15.1,0.4,2.0,111
2009-10-04 02:45:03,17.5,2.4,15.2,0.5,2.0,111
2009-10-04 02:50:03,17.6,3.0,14.6,0.4,2.1,112
2009-10-04 02:55:03,17.6,4.5,13.1,0.3,2.1,111
2009-10-04 03:00:03,17.7,3.7,14.0,0.3,2.2,112
2009-10-04 03:05:03,17.7,2.7,15.0,0.4,2.2,111
2009-10-04 03:10:03,17.7,-1.2,18.9,0.6,2.2,111
2009-10-04 03:15:03,19.6,-2.5,22.2,0.8,2.3,112
2009-10-04 03:20:03,21.7,-2.4,24.1,0.7,2.2,112
2009-10-04 03:25:03,21.8,2.2,19.6,0.4,2.2,112
2009-10-04 03:30:03,19.3,4.2,15.1,0.3,2.3,111
2009-10-04 03:35:03,18.3,4.3,14.0,0.2,2.3,112
2009-10-04 03:40:03,18.1,4.3,13.7,0.3,2.3,112
2009-10-04 03:45:03,18.0,4.2,13.7,0.2,2.3,112
2009-10-04 03:50:03,17.9,4.1,13.8,0.3,2.3,111
2009-10-04 03:55:03,17.9,3.9,14.0,0.3,2.3,112
2009-10-04 04:00:03,17.8,4.0,13.9,0.2,2.3,111
2009-10-04 04:05:03,17.8,3.9,13.9,0.2,2.3,112
2009-10-04 04:10:03,17.8,3.9,13.9,0.2,2.2,111
2009-10-04 04:15:03,17.8,4.2,13.7,0.2,2.2,112
2009-10-04 04:20:03,17.8,4.1,13.8,0.2,2.2,112
2009-10-04 04:25:03,17.9,3.9,13.9,0.2,2.3,112
2009-10-04 04:30:03,17.9,3.7,14.1,0.3,2.2,111
2009-10-04 04:35:03,17.8,3.4,14.4,0.3,2.2,112
2009-10-04 04:40:03,17.8,2.8,15.0,0.3,2.2,111
2009-10-04 04:45:03,17.8,1.7,16.1,0.4,2.1,111
2009-10-04 04:50:03,17.8,3.2,14.6,0.3,2.1,111
2009-10-04 04:55:03,17.8,3.6,14.3,0.2,2.1,111
2009-10-04 05:00:03,17.9,3.7,14.1,0.2,2.0,112
2009-10-04 05:05:03,17.9,3.8,14.0,0.2,2.0,111
2009-10-04 05:10:03,17.9,3.7,14.2,0.2,2.1,112
2009-10-04 05:15:03,17.9,3.4,14.4,0.2,2.2,111
2009-10-04 05:20:03,17.9,3.7,14.2,0.2,2.2,111
2009-10-04 05:25:03,17.9,3.6,14.3,0.1,2.2,112
2009-10-04 05:30:03,17.9,2.8,15.1,0.2,2.1,111
2009-10-04 05:35:03,17.9,3.5,14.4,0.2,2.1,111
2009-10-04 05:40:03,17.9,3.6,14.3,0.1,2.0,112
2009-10-04 05:45:03,17.9,3.7,14.2,0.1,2.0,111
2009-10-04 05:50:03,17.9,2.6,15.3,0.2,2.0,112
2009-10-04 05:55:03,17.8,3.1,14.8,0.2,1.9,111
2009-10-04 06:00:03,17.8,3.4,14.4,0.2,1.9,111
2009-10-04 06:05:03,17.8,3.6,14.2,0.2,1.9,112
2009-10-04 06:10:03,17.8,3.5,14.3,0.2,1.9,111
2009-10-04 06:15:03,17.8,3.4,14.4,0.2,1.9,112
2009-10-04 06:20:03,17.8,3.3,14.5,0.4,1.9,111
2009-10-04 06:25:03,17.8,3.1,14.6,0.7,2.0,111
2009-10-04 06:30:03,17.8,3.0,14.7,1.5,1.9,111
2009-10-04 06:35:03,17.8,2.6,15.1,3.1,1.9,111
2009-10-04 06:40:03,17.8,2.4,15.4,6.2,1.9,111
2009-10-04 06:45:03,17.8,2.3,15.5,10.5,1.9,111
2009-10-04 06:50:03,17.7,3.3,14.5,15.3,1.9,111
2009-10-04 06:55:03,17.7,3.2,14.5,20.8,2.0,111
2009-10-04 07:00:03,17.7,3.1,14.7,25.4,2.0,111
2009-10-04 07:05:03,17.8,3.0,14.8,28.5,2.0,111
2009-10-04 07:10:03,17.8,2.9,14.8,29.6,1.9,112
2009-10-04 07:15:03,17.8,3.1,14.7,30.3,2.1,111
2009-10-04 07:20:03,17.8,2.6,15.2,30.9,2.1,111
2009-10-04 07:25:03,17.8,3.2,14.6,31.2,2.2,111
2009-10-04 07:30:03,17.8,3.4,14.4,31.5,2.2,112
2009-10-04 07:35:03,17.8,3.5,14.3,31.7,1.9,111
2009-10-04 07:40:03,17.8,3.0,14.8,32.0,2.0,111
2009-10-04 07:45:03,17.9,2.8,15.1,32.0,2.1,112
2009-10-04 07:50:03,17.9,2.1,15.8,32.1,2.1,111
2009-10-04 07:55:03,17.9,2.4,15.5,32.2,2.1,111
2009-10-04 08:00:03,17.9,2.5,15.4,32.2,2.2,111
2009-10-04 08:05:03,17.9,2.5,15.4,32.3,2.2,111
2009-10-04 08:10:03,17.9,1.6,16.3,32.3,2.2,111
2009-10-04 08:15:03,17.9,1.9,16.0,32.3,2.2,111
2009-10-04 08:20:03,18.0,2.3,15.7,32.3,2.3,110
2009-10-04 08:25:03,18.0,2.1,15.9,32.3,2.3,112
2009-10-04 08:30:03,18.1,2.5,15.6,32.4,2.3,111
2009-10-04 08:35:03,18.1,1.7,16.4,32.4,2.3,111
2009-10-04 08:40:03,18.6,-2.5,21.1,32.4,2.3,112
2009-10-04 08:45:03,21.5,-5.9,27.4,32.4,2.3,111
2009-10-04 08:50:03,22.6,-4.6,27.2,32.4,2.3,112
2009-10-04 08:55:03,23.2,-2.0,25.2,32.5,2.3,112
2009-10-04 09:00:03,23.6,-4.0,27.6,32.5,2.3,111
2009-10-04 09:05:03,23.8,-4.5,28.3,32.5,2.3,112
2009-10-04 09:10:03,23.9,-4.5,28.4,32.5,2.3,112
2009-10-04 09:15:03,24.0,-3.7,27.8,32.5,2.3,112
2009-10-04 09:20:03,24.1,-3.2,27.3,32.5,2.3,111
2009-10-04 09:25:03,24.1,-3.8,27.9,32.5,2.3,112
2009-10-04 09:30:03,24.3,-7.7,32.0,32.5,2.3,112
2009-10-04 09:35:03,24.3,-12.8,37.1,32.5,2.3,111
2009-10-04 09:40:03,24.1,-11.9,36.0,32.5,2.3,112
2009-10-04 09:45:03,24.0,-14.2,38.2,32.5,2.3,111
2009-10-04 09:50:03,24.0,-15.0,39.0,32.5,2.3,112
2009-10-04 09:55:03,24.0,-16.8,40.8,32.5,2.3,111
2009-10-04 10:00:03,24.0,-17.7,41.7,32.5,2.3,112
2009-10-04 10:05:03,24.3,-18.5,42.8,32.5,2.3,112
2009-10-04 10:10:03,24.1,-19.0,43.1,32.5,2.3,112
2009-10-04 10:15:03,24.1,-19.0,43.1,32.5,2.2,111
2009-10-04 10:20:03,24.2,-18.1,42.4,32.5,2.2,112
2009-10-04 10:25:03,24.3,-17.7,42.1,32.5,2.3,111
2009-10-04 10:30:03,24.8,-16.9,41.7,32.5,2.3,112
2009-10-04 10:35:03,25.5,-17.1,42.6,32.6,2.3,112
2009-10-04 10:40:03,26.0,-16.9,42.9,32.6,2.3,111
2009-10-04 10:45:03,25.7,-16.2,41.9,32.6,2.3,112
2009-10-04 10:50:03,26.1,-14.9,41.0,32.6,2.3,111
2009-10-04 10:55:03,26.2,-12.7,38.9,32.6,2.3,112
2009-10-04 11:00:03,26.7,-13.8,40.5,32.6,2.3,111
2009-10-04 11:05:03,27.0,-7.0,33.9,32.6,2.3,112
2009-10-04 11:10:03,27.0,-2.6,29.5,32.6,2.3,112
2009-10-04 11:15:03,26.6,0.3,26.3,32.6,2.3,111
2009-10-04 11:20:03,26.6,-0.2,26.7,32.6,2.3,112
2009-10-04 11:25:03,26.6,-0.2,26.8,32.6,2.3,112
2009-10-04 11:30:03,26.6,-1.1,27.6,32.6,2.3,112
2009-10-04 11:35:03,26.5,-4.2,30.7,32.6,2.3,111
2009-10-04 11:40:03,26.7,-6.8,33.5,32.6,2.3,112
2009-10-04 11:45:03,26.9,-4.9,31.7,32.6,2.3,112
2009-10-04 11:50:03,26.9,-7.3,34.2,32.6,2.3,111
2009-10-04 11:55:03,27.4,-10.3,37.6,32.6,2.0,112
2009-10-04 12:00:03,28.1,-13.5,41.6,32.6,1.2,111
2009-10-04 12:05:03,28.1,-13.5,41.7,32.6,1.1,112
2009-10-04 12:10:03,28.3,-11.4,39.8,32.6,1.0,111
2009-10-04 12:15:03,28.3,-12.4,40.7,32.6,1.0,112
2009-10-04 12:20:03,28.1,-11.9,40.1,32.6,1.0,111
2009-10-04 12:25:03,28.5,-10.9,39.4,32.6,1.1,112
2009-10-04 12:30:03,28.5,-12.9,41.3,32.6,1.2,111
2009-10-04 12:35:03,28.1,-10.9,39.0,32.6,1.1,112
2009-10-04 12:40:03,28.2,-11.7,39.8,32.6,1.1,112
2009-10-04 12:45:03,28.0,-12.1,40.1,32.6,1.0,112
2009-10-04 12:50:03,28.2,-9.5,37.7,32.6,1.1,111
2009-10-04 12:55:03,28.5,-9.5,38.0,32.6,1.3,112
2009-10-04 13:00:03,28.1,-8.6,36.7,32.6,1.2,112
2009-10-04 13:05:03,28.6,-7.2,35.9,32.6,1.3,111
2009-10-04 13:10:03,29.2,-7.9,37.0,32.6,1.5,112
2009-10-04 13:15:03,28.9,-8.2,37.2,32.6,1.5,112
2009-10-04 13:20:03,28.7,-7.1,35.8,32.6,1.5,111
2009-10-04 13:25:03,28.6,-2.3,30.9,32.6,1.4,112
2009-10-04 13:30:03,28.4,-0.0,28.4,32.6,1.4,111
2009-10-04 13:35:03,28.1,3.8,24.2,32.6,1.3,111
2009-10-04 13:40:03,27.9,4.1,23.8,32.6,1.2,112
2009-10-04 13:45:03,27.9,2.6,25.3,32.6,1.2,111
2009-10-04 13:50:03,28.0,0.3,27.7,32.6,1.2,112
2009-10-04 13:55:03,28.1,0.4,27.7,32.6,1.3,111
2009-10-04 14:00:03,27.9,4.5,23.4,32.6,1.3,112
2009-10-04 14:05:03,27.7,5.0,22.7,32.6,1.2,111
2009-10-04 14:10:03,27.7,4.9,22.8,32.6,1.2,112
2009-10-04 14:15:03,27.6,4.7,22.9,32.5,1.1,112
2009-10-04 14:20:03,27.3,5.0,22.3,32.5,1.1,111
2009-10-04 14:25:03,27.0,4.8,22.2,32.5,1.2,112
2009-10-04 14:30:03,26.8,5.0,21.8,32.5,1.5,111
2009-10-04 14:35:03,26.8,4.9,21.9,32.5,1.1,112
2009-10-04 14:40:03,27.0,0.5,26.5,32.6,1.5,111
2009-10-04 14:45:03,27.1,-3.6,30.7,32.6,1.1,111
2009-10-04 14:50:03,27.2,4.6,22.5,32.5,1.3,112
2009-10-04 14:55:03,27.0,4.1,23.0,32.5,1.1,111
2009-10-04 15:00:03,26.9,5.0,21.9,32.5,1.5,112
2009-10-04 15:05:03,26.9,4.5,22.4,32.5,1.2,111
2009-10-04 15:10:03,27.1,4.5,22.6,32.5,1.4,112
2009-10-04 15:15:03,27.1,4.6,22.5,32.5,1.2,112
2009-10-04 15:20:03,27.0,4.8,22.3,32.5,1.4,111
2009-10-04 15:25:03,27.0,4.5,22.5,32.5,1.4,112
2009-10-04 15:30:03,27.0,5.1,21.9,32.5,1.1,112
2009-10-04 15:35:03,26.8,5.5,21.3,32.5,1.4,112
2009-10-04 15:40:03,26.8,5.7,21.2,32.5,1.1,111
2009-10-04 15:45:03,26.8,5.1,21.7,32.5,1.6,112
2009-10-04 15:50:03,26.8,4.2,22.6,32.5,2.0,112
2009-10-04 15:55:03,26.7,3.1,23.6,32.5,1.9,112
2009-10-04 16:00:03,26.8,4.0,22.7,32.5,1.6,111
2009-10-04 16:05:03,26.9,3.7,23.2,32.5,1.4,111
2009-10-04 16:10:03,27.0,3.7,23.3,32.5,1.7,112
2009-10-04 16:15:03,27.0,0.2,26.8,32.6,1.6,112
2009-10-04 16:20:03,27.1,1.2,25.9,32.5,1.2,111
2009-10-04 16:25:03,27.0,4.6,22.4,32.5,1.7,111
2009-10-04 16:30:03,27.0,5.1,21.8,32.5,1.6,112
2009-10-04 16:35:03,26.8,4.9,21.9,32.5,1.3,111
2009-10-04 16:40:03,26.7,5.2,21.5,32.5,1.9,112
2009-10-04 16:45:03,26.5,5.2,21.3,32.5,1.9,112
2009-10-04 16:50:03,26.5,5.0,21.5,32.5,2.2,111
2009-10-04 16:55:03,26.5,5.2,21.3,32.5,2.2,112
2009-10-04 17:00:03,26.4,4.7,21.7,32.5,2.2,112
2009-10-04 17:05:03,26.2,4.3,21.9,32.5,2.2,112
2009-10-04 17:10:03,26.1,4.3,21.8,32.4,2.3,111
2009-10-04 17:15:03,26.1,3.6,22.5,32.4,3.7,112
2009-10-04 17:20:03,25.4,4.8,20.6,32.3,2.8,111
2009-10-04 17:25:03,22.3,5.6,16.7,32.3,2.3,112
2009-10-04 17:30:03,20.8,3.7,17.1,32.4,2.4,112
2009-10-04 17:35:03,22.2,-0.4,22.6,32.3,2.3,111
2009-10-04 17:40:03,23.6,4.0,19.7,32.2,2.3,112
2009-10-04 17:45:03,21.3,5.2,16.1,32.2,2.3,112
2009-10-04 17:50:03,20.6,4.2,16.4,32.3,2.3,111
2009-10-04 17:55:03,20.4,3.7,16.7,32.2,2.3,112
2009-10-04 18:00:03,20.4,4.9,15.5,32.1,2.3,111
2009-10-04 18:05:03,20.2,6.2,14.0,31.9,2.3,111
2009-10-04 18:10:03,20.1,6.5,13.7,31.7,2.3,111
2009-10-04 18:15:03,20.2,6.8,13.4,31.4,2.3,112
2009-10-04 18:20:03,20.2,6.9,13.4,31.3,2.4,111
2009-10-04 18:25:03,20.3,6.1,14.2,31.4,2.3,112
2009-10-04 18:30:03,20.3,7.2,13.1,30.9,2.3,111
2009-10-04 18:35:03,20.3,8.0,12.3,29.9,2.3,112
2009-10-04 18:40:03,20.4,7.0,13.4,29.5,2.3,112
2009-10-04 18:45:03,20.0,6.4,13.6,28.2,2.3,111
2009-10-04 18:50:04,20.4,5.5,14.9,26.2,2.3,111
2009-10-04 18:55:04,20.3,5.2,15.1,21.2,2.4,112
2009-10-04 19:00:04,20.3,7.6,12.7,13.8,2.4,111
2009-10-04 19:05:04,20.3,8.3,12.0,6.7,2.5,112
2009-10-04 19:10:04,20.3,7.7,12.7,3.7,2.3,112
2009-10-04 19:15:04,20.4,7.2,13.2,2.1,2.3,111
2009-10-04 19:20:04,20.4,6.8,13.6,1.2,2.4,112
2009-10-04 19:25:04,20.4,7.1,13.3,0.6,2.5,111
2009-10-04 19:30:04,20.4,7.2,13.1,0.3,2.5,112
2009-10-04 19:35:04,20.3,7.1,13.2,0.2,2.5,112
2009-10-04 19:40:04,20.3,7.3,13.0,0.1,2.4,111
2009-10-04 19:45:04,20.3,7.5,12.8,0.1,2.3,112
2009-10-04 19:50:04,20.3,7.3,13.0,0.1,2.3,112
2009-10-04 19:55:04,20.3,7.0,13.3,0.1,2.3,111
2009-10-04 20:00:04,20.1,4.5,15.5,0.1,2.3,112
2009-10-04 20:05:04,19.8,2.0,17.8,0.1,2.3,111
2009-10-04 20:10:04,19.5,4.2,15.3,0.2,2.0,111
2009-10-04 20:15:04,19.4,5.2,14.2,0.2,2.1,112
2009-10-04 20:20:04,19.3,4.9,14.4,0.2,2.3,112
2009-10-04 20:25:04,19.2,4.0,15.2,0.2,2.3,111
2009-10-04 20:30:04,19.1,5.2,13.9,0.2,2.3,111
2009-10-04 20:35:04,19.1,5.5,13.6,0.2,2.3,112
2009-10-04 20:40:04,19.1,5.3,13.8,0.2,2.3,112
2009-10-04 20:45:04,19.1,5.2,13.9,0.2,2.3,112
2009-10-04 20:50:04,19.1,4.9,14.1,0.2,2.3,111
2009-10-04 20:55:04,19.1,5.1,13.9,0.3,2.3,112
2009-10-04 21:00:04,19.1,4.9,14.2,0.3,2.3,111
2009-10-04 21:05:04,19.0,4.4,14.6,0.3,2.3,111
2009-10-04 21:10:04,18.9,3.9,15.0,0.3,2.3,112
2009-10-04 21:15:04,18.8,4.7,14.1,0.3,2.3,112
2009-10-04 21:20:04,18.8,4.7,14.0,0.3,2.3,111
2009-10-04 21:25:04,18.7,4.5,14.2,0.3,2.3,112
2009-10-04 21:30:04,18.6,5.2,13.4,0.3,2.3,111
2009-10-04 21:35:04,18.6,4.4,14.2,0.3,2.3,112
2009-10-04 21:40:04,18.6,4.5,14.1,0.3,2.3,112
2009-10-04 21:45:04,18.6,4.7,13.9,0.3,2.3,111
2009-10-04 21:50:04,18.6,4.6,14.0,0.4,2.3,111
2009-10-04 21:55:04,18.5,5.3,13.2,0.3,2.3,112
2009-10-04 22:00:04,18.6,5.4,13.2,0.4,2.3,112
2009-10-04 22:05:04,18.6,4.8,13.8,0.4,2.3,112
2009-10-04 22:10:04,18.7,4.4,14.3,0.4,2.3,112
2009-10-04 22:15:04,18.6,4.5,14.2,0.4,2.3,112
2009-10-04 22:20:04,18.6,4.7,13.9,0.4,2.3,111
2009-10-04 22:25:04,18.6,4.8,13.7,0.4,2.3,112
2009-10-04 22:30:04,18.6,5.1,13.4,0.4,2.3,112
2009-10-04 22:35:04,18.6,4.8,13.9,0.4,2.3,111
2009-10-04 22:40:04,18.7,5.8,12.9,0.4,2.3,112
2009-10-04 22:45:04,18.8,5.9,12.8,0.3,2.3,111
2009-10-04 22:50:04,18.8,6.1,12.7,0.3,2.3,111
2009-10-04 22:55:04,18.8,5.7,13.0,0.4,2.3,112
2009-10-04 23:00:04,18.7,6.0,12.7,0.3,2.3,112
2009-10-04 23:05:04,18.8,5.9,12.9,0.4,2.3,112
2009-10-04 23:10:04,18.8,6.1,12.7,0.4,2.3,111
2009-10-04 23:15:04,18.9,6.7,12.1,0.3,2.3,112
2009-10-04 23:20:04,19.0,6.7,12.3,0.3,2.3,111
2009-10-04 23:25:04,19.0,6.7,12.3,0.3,2.3,111
2009-10-04 23:30:04,18.7,7.3,11.4,0.2,2.4,111
2009-10-04 23:35:04,19.1,7.1,12.1,0.3,3.0,112
2009-10-04 23:40:04,19.1,6.7,12.4,0.3,3.2,111
2009-10-04 23:45:04,18.9,7.4,11.5,0.3,2.3,112
2009-10-04 23:50:04,18.8,7.4,11.4,0.3,2.3,112
2009-10-04 23:55:04,18.8,7.1,11.7,0.4,2.3,111
